STARLINK-32893, 62897

Orbit data source: Space-Track

STARLINK-32893, 62897 is a payload satellite owned by SpaceX/Seattle (US) in LEO that was launched on Tue, 04 Feb 2025 UTC via an FALCON 9 launch vehicle from the Air Force Eastern Test Range (AFETR). Payload-class satellites include a variety of spacecraft equipped with specific instruments for various scientific and technological missions. These include communications satellites like Starlink; space stations such as the ISS; scientific satellites like the Hubble; Earth observation satellites from companies like Planet Labs, Umbra, and HawkEye 360; GPS; miniature CubeSats for education and research; and military/defense satellites.

Loading next visibility...
Identifier
62897, 2025-024U
Orbit
LEO
Country
Flag of USUS
Related business
Manufacturer
SpaceX/Seattle
Mission
Operational Commercial Communications
Bus & Motor
STARLINK V2M, Unknown motor
Mass
730 kg wet, ~700 kg dry
Launch date (UTC)
2025-02-04 (8 months ago)
Launch vehicle
FALCON 9
Launch site
Air Force Eastern Test Range (AFETR)
Object type
Payload
Rocket body
Debris
Shape & HBR
Box + 2 Pan, 17.7 m
Radar Cross Section
33.884 m², Large (>1 m²)

Expand to show TLE details & history
Last TLE update: 14 hours ago

TLE from 14 hours ago
0 STARLINK-32893
1 62897U 25024U   25290.64834291  .00050644  00000-0  18347-2 0  9994
2 62897  43.0009  52.8374 0001001 273.1033  86.9704 15.27626889 40394
Epoch: 2025-10-17T15:33Z
TLE epoch observation values (Epoch: 2025-10-17T15:33:36.827Z)
Latitude
-0.00002°
Longitude
153.04323°
Altitude
482.648 km
Speed
7.626 km/s
True Right ascension
03h 31m 20s
True Declination
0° 00' 00"
Sunlit
Object was in full shadow at epoch
Visualization orbit readout
Latitude
Unknown
Longitude
Unknown
Altitude
Unknown
Speed
Unknown
Apparent Right ascension
Unknown
Apparent Declination
Unknown
Sunlit
N/A
Visualization observer readout
Local Sidereal Time
00:18:20
Azimuth
Unknown
Elevation
Unknown
Doppler factor
Unknown
Orbital elements
Apogee altitude
485.541 km
Perigee altitude
484.167 km
Semi-major axis
6,862.991 km
Eccentricity
0.0001
Inclination
43.0009°
RAAN
52.8374°
Arg. of periapsis
273.1033°
True anomaly
86.98185°
Mean anomaly
86.9704°
Eccentric anomaly
86.97613°
Mean motion
3.81745 °/min
Orbital period
94.3 mins
BSTAR
0.0018347
Loading maneuver chart data...
Computing Atmospheric mass density...
Loading historical data...
Loading historical data...
Loading historical data...
Loading historical data...
Loading historical data...
Loading historical data...
Loading historical data...

Documentation

Showing up to 5 results
|